Location: Ostrava
(49.8330°N, 18.2830°E)
Time: 01:32:11
(UTC+01:00)

NOAA 19 - Visible Passes

Search period start: 01 November 2014 00:00
Search period end: 11 November 2014 00:00
Orbit: 842 x 864 km, 99.0° (Epoch: 31 October)

Date Brightness Start Highest point End Pass type
(mag) Time Alt. Az. Time Alt. Az. Time Alt. Az.
01 Nov 7.5 02:36:16 10° NNE 02:37:21 16° N 02:37:21 16° N visible
01 Nov 7.3 04:18:36 10° NNW 04:19:24 12° NNW 04:19:24 12° NNW visible
02 Nov 7.6 02:25:09 10° NNE 02:26:01 15° NNE 02:26:01 15° NNE visible
02 Nov 7.3 04:07:08 10° NNW 04:08:04 13° NNW 04:08:04 13° NNW visible
03 Nov 7.8 02:14:03 10° NNE 02:14:40 13° NNE 02:14:40 13° NNE visible
03 Nov 7.3 03:55:45 10° N 03:56:43 14° NNW 03:56:43 14° NNW visible
04 Nov 7.9 02:02:59 10° NNE 02:03:20 12° NNE 02:03:20 12° NNE visible
04 Nov 7.3 03:44:25 10° N 03:45:23 14° NNW 03:45:23 14° NNW visible
05 Nov 8.1 01:51:56 10° NNE 01:51:59 10° NNE 01:51:59 10° NNE visible
05 Nov 7.4 03:33:08 10° N 03:34:02 14° N 03:34:02 14° N visible
06 Nov 7.4 03:21:53 10° N 03:22:42 14° N 03:22:42 14° N visible
07 Nov 7.5 03:10:40 10° N 03:11:21 14° N 03:11:21 14° N visible
08 Nov 7.6 02:59:28 10° N 03:00:01 13° N 03:00:01 13° N visible
09 Nov 7.7 02:48:18 10° N 02:48:40 12° N 02:48:40 12° N visible
10 Nov 7.9 02:37:09 10° NNE 02:37:20 11° NNE 02:37:20 11° NNE visible
